Regional Weather Roundup
Issued by NWS

Home | Current Version | Previous Version | Text Only | Print | Product List | Glossary On
Versions: 1 2 3 4 5 6 7 8 9 10 11 12 13 14 15 16 17 18 19 20 21 22 23 24 25 26 27 28 29 30 31 32 33 34 35 36 37 38 39 40 41 42 43 44 45 46 47 48 49 50
000
ASUS44 KBMX 290810
RWRAL

ALABAMA REGIONAL WEATHER ROUNDUP
NATIONAL WEATHER SERVICE BIRMINGHAM AL
300 AM CDT MON MAY 29 2017

NOTE: "FAIR" INDICATES FEW OR NO CLOUDS BELOW 12,000 FEET
WITH NO SIGNIFICANT WEATHER AND/OR OBSTRUCTIONS TO VISIBILITY.

THE REMARK "TC" DENOTES TEMPERATURE IN DEGREES CELSIUS.

ALZ001>011-014-016>018-020-290900-
NORTH ALABAMA

CITY           SKY/WX    TMP DP  RH WIND       PRES   REMARKS
MUSCLE SHOALS  CLOUDY    69  66  90 W7        30.00R
HUNTSVILLE     CLOUDY    70  68  93 S3        29.98R
DECATUR        LGT RAIN  71  67  87 W6        29.99R
HALEYVILLE     CLOUDY    68  65  90 W3        30.04R
GADSDEN        CLOUDY    69  67  93 S3        29.99S
$$

ALZ012-013-022-023-030>036-040>044-290900-
WEST CENTRAL ALABAMA

CITY           SKY/WX    TMP DP  RH WIND       PRES   REMARKS
TUSCALOOSA     CLOUDY    69  67  93 CALM      29.99R
$$

ALZ015-024>027-033>036-040>044-290900-
CENTRAL ALABAMA

CITY           SKY/WX    TMP DP  RH WIND       PRES   REMARKS
BIRMINGHAM     CLOUDY    72  66  81 CALM      30.00F
MONTGOMERY     CLOUDY    73  66  78 SW5       29.98S
SHELBY CO ARPT CLOUDY    70  68  93 CALM      30.00R
MAXWELL AFB    CLOUDY    71  68  91 CALM      29.98S
GREENVILLE     FAIR      70  66  87 CALM      30.00S
$$

ALZ019-021-028-029-037-038-045>048-290900-
EAST CENTRAL ALABAMA

CITY           SKY/WX    TMP DP  RH WIND       PRES   REMARKS
ANNISTON       CLOUDY    69  66  90 CALM      29.98F
ALEXANDER CITY CLOUDY    65  64  96 CALM      30.00R
AUBURN         PTCLDY    70  66  87 CALM      30.01S
$$

ALZ051>064-290900-
SOUTHWEST ALABAMA

CITY           SKY/WX    TMP DP  RH WIND       PRES   REMARKS
MOBILE         CLOUDY    76  73  91 CALM      29.98F
BROOKLEY FIELD CLOUDY    78  75  90 NE5       29.99F
EVERGREEN      CLOUDY    71  69  93 CALM      30.01F
$$

ALZ049-050-065>069-290900-
SOUTHEAST ALABAMA

CITY           SKY/WX    TMP DP  RH WIND       PRES   REMARKS
DOTHAN         CLOUDY    74  74 100 SW6       30.04S
OZARK          CLOUDY    73  71  95 S5        30.00F
TROY           MOCLDY    70  70 100 CALM      30.00F
EUFAULA        FAIR      70  67  90 CALM      29.98S
$$



USA.gov is the U.S. government's official web portal to all federal, state and local government web resources and services.